Date,TemperatureHighF,TemperatureAvgF,TemperatureLowF,DewpointHighF,DewpointAvgF,DewpointLowF,HumidityHigh,HumidityAvg,HumidityLow,PressureMaxIn,PressureMinIn,WindSpeedMaxMPH,WindSpeedAvgMPH,GustSpeedMaxMPH,PrecipitationSumIn
2013-1-1,40.8,37.6,33.2,35.9,34.2,30.6,93,88,81,30.52,30.37,4,1,5,0.00
2013-1-2,44.4,34.4,28.9,36.7,31.3,27.1,94,89,71,30.35,30.20,5,1,7,0.01
2013-1-3,41.1,31.6,25.0,35.6,28.4,23.5,94,88,72,30.20,30.06,8,1,12,0.01
2013-1-4,46.0,38.5,31.6,41.4,36.0,29.5,93,90,83,30.30,30.11,5,1,6,0.00
2013-1-5,47.2,43.2,41.0,42.8,40.6,38.9,95,91,80,30.17,30.04,15,3,16,0.02
2013-1-6,44.6,37.9,32.6,41.2,35.6,30.7,94,92,86,30.15,29.93,4,0,4,0.00
2013-1-7,51.7,42.8,38.6,46.4,39.9,37.0,95,90,70,30.11,29.77,18,4,21,0.08
2013-1-8,46.5,43.0,40.1,44.6,40.4,37.7,94,90,84,30.15,29.63,11,2,16,0.20
2013-1-9,43.8,39.0,30.3,39.2,34.6,27.7,91,84,77,29.93,29.67,20,7,0,0.18
2013-1-10,40.6,33.3,27.9,36.1,30.4,25.6,93,89,76,30.14,29.93,10,2,14,0.07
2013-1-11,39.1,33.9,28.0,31.4,25.1,20.8,89,71,50,30.33,30.16,7,2,12,0.00
2013-1-12,38.4,29.3,26.3,30.5,24.4,22.1,90,82,67,30.44,30.33,8,1,8,0.01
2013-1-13,36.7,29.8,24.6,30.9,25.6,21.8,92,84,74,30.49,30.44,5,1,5,0.00
2013-1-14,40.0,35.3,32.7,36.9,32.6,29.8,93,90,87,30.56,30.46,4,0,4,0.00
2013-1-15,42.6,35.4,31.0,36.9,32.4,29.2,94,89,75,30.72,30.59,2,0,4,0.00
2013-1-16,40.8,37.1,35.2,35.4,33.4,31.6,90,86,80,30.70,30.55,4,1,5,0.00
2013-1-17,40.5,36.6,30.4,37.0,33.9,28.4,94,90,87,30.55,30.30,4,1,4,0.00
2013-1-18,39.6,36.4,34.5,37.2,34.7,33.0,100,94,89,30.35,30.26,3,1,5,0.00
2013-1-19,40.4,36.7,30.2,36.5,34.2,28.3,93,90,84,30.40,30.35,3,1,5,0.00
2013-1-20,42.4,37.0,29.5,38.5,35.1,27.7,95,93,85,30.41,30.29,4,1,5,0.00
2013-1-21,39.2,35.5,32.4,37.3,33.9,31.1,96,94,90,30.29,30.14,3,1,5,0.00
2013-1-22,37.8,35.5,34.4,34.8,33.5,32.9,94,93,88,30.15,29.91,3,1,4,0.00
2013-1-23,43.0,39.5,37.0,40.8,37.4,34.9,95,92,90,30.07,29.82,7,2,9,0.06
2013-1-24,41.4,36.3,30.3,39.3,34.4,28.8,95,93,89,30.19,29.97,3,0,5,0.00
2013-1-25,49.3,37.8,31.9,42.8,35.3,30.1,95,91,74,30.04,29.92,5,1,6,0.00
2013-1-26,44.9,38.7,31.7,42.3,36.6,30.2,95,92,85,30.00,29.83,3,1,5,0.08
2013-1-27,42.7,38.3,34.9,39.4,35.9,32.8,94,91,86,30.03,29.97,5,1,5,0.06
2013-1-28,46.1,43.9,41.8,40.6,37.9,35.5,91,80,72,30.05,29.99,17,11,23,0.07
2013-1-29,48.2,46.9,44.5,44.8,42.7,40.4,94,86,77,30.32,30.08,19,9,21,0.06
2013-1-30,49.5,45.2,43.6,47.0,43.5,42.2,96,94,88,30.37,30.30,4,1,6,0.02
2013-1-31,49.5,45.2,42.4,47.2,43.5,41.1,96,94,89,30.38,30.28,10,2,11,0.01